• In Kazakhstan
  • List of Countries
  • For 7 days
  • Water Temperature
  • Satellite Maps
  • Weather Map
  • News
  • Weather Widgets
  • user-avatar
    Login

    Hourly Weather Belek

    Today, 17 August, Thursday

    Time Temperature Precipitation Wind Pressure Humidity
    00:00 +28°C° 0 mm 1 mps 752 mmHg 79%
    01:00 +28°C° 0 mm 1 mps 752 mmHg 76%
    02:00 +28°C° 0 mm 1 mps 752 mmHg 73%
    03:00 +28°C° 0 mm 1 mps 752 mmHg 70%
    04:00 +28°C° 0 mm 1 mps 752 mmHg 68%
    05:00 +28°C° 0 mm 1 mps 752 mmHg 65%
    06:00 +29°C° 0 mm 1 mps 752 mmHg 59%
    07:00 +31°C° 0 mm 1 mps 752 mmHg 53%
    08:00 +33°C° 0 mm 1 mps 753 mmHg 47%
    09:00 +35°C° 0 mm 2 mps 753 mmHg 47%
    10:00 +36°C° 0 mm 2 mps 753 mmHg 47%
    11:00 +36°C° 0 mm 3 mps 753 mmHg 47%
    12:00 +37°C° 0 mm 3 mps 753 mmHg 45%
    13:00 +37°C° 0 mm 3 mps 753 mmHg 44%
    14:00 +37°C° 0 mm 3 mps 753 mmHg 42%
    15:00 +36°C° 0 mm 3 mps 753 mmHg 43%
    16:00 +35°C° 0 mm 3 mps 753 mmHg 44%
    17:00 +35°C° 0 mm 2 mps 753 mmHg 45%
    18:00 +32°C° 0 mm 2 mps 753 mmHg 53%
    19:00 +30°C° 0 mm 1 mps 753 mmHg 62%
    20:00 +28°C° 0 mm 1 mps 754 mmHg 70%
    21:00 +28°C° 0 mm 1 mps 754 mmHg 68%
    22:00 +28°C° 0 mm 1 mps 754 mmHg 66%
    23:00 +28°C° 0 mm 1 mps 754 mmHg 65%

    Tomorrow, 18 August, Friday

    Time Temperature Precipitation Wind Pressure Humidity
    00:00 +28°C° 0 mm 1 mps 754 mmHg 61%
    01:00 +28°C° 0 mm 1 mps 754 mmHg 57%
    02:00 +28°C° 0 mm 1 mps 754 mmHg 53%
    03:00 +28°C° 0 mm 1 mps 754 mmHg 51%
    04:00 +28°C° 0 mm 1 mps 754 mmHg 48%
    05:00 +27°C° 0 mm 1 mps 754 mmHg 46%
    06:00 +29°C° 0 mm 1 mps 754 mmHg 42%
    07:00 +31°C° 0 mm 1 mps 755 mmHg 39%
    08:00 +33°C° 0 mm 1 mps 755 mmHg 35%
    09:00 +35°C° 0 mm 2 mps 755 mmHg 36%
    10:00 +36°C° 0 mm 3 mps 755 mmHg 36%
    11:00 +37°C° 0 mm 3 mps 755 mmHg 36%
    12:00 +36°C° 0 mm 4 mps 755 mmHg 39%
    13:00 +36°C° 0 mm 4 mps 755 mmHg 41%
    14:00 +36°C° 0 mm 4 mps 755 mmHg 44%
    15:00 +36°C° 0 mm 4 mps 755 mmHg 47%
    16:00 +35°C° 0 mm 3 mps 755 mmHg 51%
    17:00 +34°C° 0 mm 3 mps 755 mmHg 54%
    18:00 +33°C° 0 mm 3 mps 755 mmHg 60%
    19:00 +30°C° 0 mm 2 mps 755 mmHg 66%
    20:00 +29°C° 0 mm 2 mps 756 mmHg 72%
    21:00 +29°C° 0 mm 1 mps 756 mmHg 73%
    22:00 +29°C° 0 mm 1 mps 756 mmHg 73%
    23:00 +29°C° 0 mm 1 mps 756 mmHg 74%

    Day after tomorrow, 19 August, Saturday

    Time Temperature Precipitation Wind Pressure Humidity
    00:00 +28°C° 0 mm 1 mps 756 mmHg 75%
    01:00 +28°C° 0 mm 1 mps 756 mmHg 76%
    02:00 +28°C° 0 mm 1 mps 756 mmHg 77%
    03:00 +27°C° 0 mm 1 mps 756 mmHg 76%
    04:00 +27°C° 0 mm 1 mps 756 mmHg 76%
    05:00 +27°C° 0 mm 1 mps 756 mmHg 76%
    06:00 +29°C° 0 mm 1 mps 756 mmHg 69%
    07:00 +30°C° 0 mm 1 mps 757 mmHg 63%
    08:00 +32°C° 0 mm 1 mps 757 mmHg 56%
    09:00 +34°C° 0 mm 2 mps 757 mmHg 54%
    10:00 +35°C° 0 mm 3 mps 757 mmHg 52%
    11:00 +36°C° 0 mm 3 mps 757 mmHg 50%
    12:00 +35°C° 0.1 mm 4 mps 757 mmHg 51%
    13:00 +35°C° 0.1 mm 4 mps 757 mmHg 53%
    14:00 +35°C° 0.1 mm 4 mps 757 mmHg 54%
    15:00 +35°C° 0.1 mm 4 mps 757 mmHg 57%
    16:00 +34°C° 0.1 mm 3 mps 757 mmHg 59%
    17:00 +33°C° 0.1 mm 3 mps 757 mmHg 62%
    18:00 +31°C° 0 mm 3 mps 757 mmHg 68%
    19:00 +30°C° 0 mm 2 mps 757 mmHg 74%
    20:00 +28°C° 0 mm 2 mps 757 mmHg 80%
    21:00 +28°C° 0 mm 1 mps 757 mmHg 82%
    22:00 +28°C° 0 mm 1 mps 757 mmHg 83%
    23:00 +27°C° 0 mm 1 mps 757 mmHg 84%

    20 August, Sunday

    Time Temperature Precipitation Wind Pressure Humidity
    00:00 +27°C° 0 mm 1 mps 757 mmHg 85%
    01:00 +27°C° 0 mm 1 mps 757 mmHg 85%
    02:00 +27°C° 0 mm 1 mps 757 mmHg 86%
    03:00 +27°C° 0 mm 1 mps 757 mmHg 85%
    04:00 +27°C° 0 mm 1 mps 757 mmHg 84%
    05:00 +27°C° 0 mm 1 mps 756 mmHg 84%
    06:00 +28°C° 0 mm 1 mps 757 mmHg 76%
    07:00 +30°C° 0 mm 1 mps 757 mmHg 69%
    08:00 +31°C° 0 mm 2 mps 757 mmHg 61%
    09:00 +32°C° 0 mm 2 mps 757 mmHg 59%
    10:00 +34°C° 0 mm 3 mps 757 mmHg 58%
    11:00 +35°C° 0 mm 4 mps 757 mmHg 56%
    12:00 +35°C° 0 mm 4 mps 757 mmHg 56%
    13:00 +35°C° 0 mm 4 mps 756 mmHg 57%
    14:00 +35°C° 0 mm 4 mps 756 mmHg 58%
    15:00 +35°C° 0 mm 4 mps 756 mmHg 61%
    16:00 +34°C° 0 mm 3 mps 756 mmHg 63%
    17:00 +33°C° 0 mm 3 mps 756 mmHg 66%
    18:00 +31°C° 0 mm 3 mps 756 mmHg 73%
    19:00 +30°C° 0 mm 2 mps 756 mmHg 80%
    20:00 +28°C° 0 mm 2 mps 756 mmHg 87%
    21:00 +28°C° 0 mm 2 mps 756 mmHg 88%
    22:00 +28°C° 0 mm 2 mps 756 mmHg 88%
    23:00 +27°C° 0 mm 1 mps 756 mmHg 88%

    21 August, Monday

    Time Temperature Precipitation Wind Pressure Humidity
    00:00 +27°C° 0 mm 1 mps 756 mmHg 88%
    01:00 +27°C° 0 mm 1 mps 756 mmHg 88%
    02:00 +27°C° 0 mm 1 mps 755 mmHg 88%
    03:00 +27°C° 0 mm 1 mps 755 mmHg 88%
    04:00 +27°C° 0 mm 1 mps 755 mmHg 87%
    05:00 +26°C° 0 mm 1 mps 755 mmHg 87%
    06:00 +28°C° 0 mm 1 mps 755 mmHg 79%
    07:00 +30°C° 0 mm 1 mps 756 mmHg 72%
    08:00 +31°C° 0 mm 1 mps 756 mmHg 65%
    09:00 +32°C° 0 mm 2 mps 756 mmHg 62%
    10:00 +34°C° 0 mm 2 mps 756 mmHg 59%
    11:00 +35°C° 0 mm 3 mps 756 mmHg 55%
    12:00 +35°C° 0 mm 3 mps 756 mmHg 55%
    13:00 +35°C° 0 mm 3 mps 755 mmHg 54%
    14:00 +36°C° 0 mm 4 mps 755 mmHg 54%
    15:00 +35°C° 0.1 mm 3 mps 755 mmHg 57%
    16:00 +34°C° 0.1 mm 3 mps 755 mmHg 59%
    17:00 +34°C° 0.1 mm 3 mps 755 mmHg 62%
    18:00 +31°C° 0 mm 3 mps 755 mmHg 70%
    19:00 +30°C° 0 mm 2 mps 755 mmHg 77%
    20:00 +28°C° 0 mm 1 mps 756 mmHg 85%
    21:00 +28°C° 0 mm 1 mps 756 mmHg 85%
    22:00 +28°C° 0 mm 1 mps 756 mmHg 85%
    23:00 +28°C° 0 mm 1 mps 756 mmHg 85%

    22 August, Tuesday

    Time Temperature Precipitation Wind Pressure Humidity
    00:00 +28°C° 0 mm 1 mps 755 mmHg 84%
    01:00 +28°C° 0 mm 1 mps 755 mmHg 82%
    02:00 +28°C° 0 mm 1 mps 755 mmHg 81%
    03:00 +28°C° 0 mm 1 mps 755 mmHg 80%
    04:00 +27°C° 0 mm 1 mps 755 mmHg 79%
    05:00 +27°C° 0 mm 1 mps 756 mmHg 77%
    06:00 +29°C° 0 mm 1 mps 756 mmHg 71%
    07:00 +31°C° 0 mm 1 mps 756 mmHg 64%
    08:00 +33°C° 0 mm 1 mps 756 mmHg 58%
    09:00 +35°C° 0 mm 2 mps 756 mmHg 54%
    10:00 +36°C° 0 mm 2 mps 756 mmHg 50%
    11:00 +37°C° 0 mm 3 mps 756 mmHg 46%
    12:00 +37°C° 0 mm 3 mps 755 mmHg 46%
    13:00 +37°C° 0 mm 3 mps 755 mmHg 46%
    14:00 +38°C° 0 mm 4 mps 755 mmHg 46%
    15:00 +37°C° 0 mm 4 mps 754 mmHg 48%
    16:00 +36°C° 0 mm 3 mps 754 mmHg 50%
    17:00 +36°C° 0 mm 3 mps 754 mmHg 53%
    18:00 +34°C° 0 mm 3 mps 754 mmHg 62%
    19:00 +31°C° 0 mm 3 mps 754 mmHg 71%
    20:00 +29°C° 0 mm 2 mps 754 mmHg 80%
    21:00 +29°C° 0 mm 2 mps 755 mmHg 81%
    22:00 +29°C° 0 mm 2 mps 755 mmHg 82%
    23:00 +28°C° 0 mm 1 mps 755 mmHg 83%
    Show more